Time,TemperatureF,DewpointF,PressureIn,WindDirection,WindDirectionDegrees,WindSpeedMPH,WindSpeedGustMPH,Humidity,HourlyPrecipIn,Conditions,Clouds,dailyrainin,SoftwareType,DateUTC
2013-06-07 00:04:00,45.1,40.9,29.66,North,0,0.0,-999.0,85,0.00,,,-99.99,,2013-06-07 08:04:00,
2013-06-07 00:09:00,44.9,40.9,29.66,North,0,0.0,-999.0,85,0.00,,,-99.99,,2013-06-07 08:09:00,
2013-06-07 00:14:00,44.9,40.9,29.66,North,0,0.0,-999.0,85,0.00,,,-99.99,,2013-06-07 08:14:00,
2013-06-07 00:19:00,44.8,40.9,29.66,North,0,0.0,-999.0,86,0.00,,,-99.99,,2013-06-07 08:19:00,
2013-06-07 00:24:00,44.9,40.8,29.66,North,0,0.0,-999.0,85,0.00,,,-99.99,,2013-06-07 08:24:00,
2013-06-07 00:29:00,44.9,40.8,29.66,North,0,0.0,-999.0,85,0.00,,,-99.99,,2013-06-07 08:29:00,
2013-06-07 00:34:00,44.9,40.9,29.66,North,0,0.0,-999.0,85,0.00,,,-99.99,,2013-06-07 08:34:00,
2013-06-07 00:39:00,44.8,40.8,29.66,North,0,0.0,-999.0,85,0.00,,,-99.99,,2013-06-07 08:39:00,
2013-06-07 00:44:00,45.1,40.9,29.66,North,0,0.0,-999.0,85,0.00,,,-99.99,,2013-06-07 08:44:00,
2013-06-07 00:49:00,44.9,40.7,29.66,North,0,0.0,-999.0,84,0.00,,,-99.99,,2013-06-07 08:49:00,
2013-06-07 00:54:00,44.9,40.7,29.66,North,0,0.0,-999.0,84,0.00,,,-99.99,,2013-06-07 08:54:00,
2013-06-07 00:59:00,44.9,40.6,29.64,North,0,0.0,-999.0,84,0.00,,,-99.99,,2013-06-07 08:59:00,
2013-06-07 01:04:00,45.0,40.8,29.64,North,0,0.0,-999.0,85,0.00,,,-99.99,,2013-06-07 09:04:00,
2013-06-07 01:09:00,45.1,40.7,29.64,North,0,0.0,-999.0,84,0.00,,,-99.99,,2013-06-07 09:09:00,
2013-06-07 01:14:00,44.9,40.7,29.64,North,0,0.0,-999.0,84,0.00,,,-99.99,,2013-06-07 09:14:00,
2013-06-07 01:19:00,45.1,40.9,29.64,North,0,0.0,-999.0,85,0.00,,,-99.99,,2013-06-07 09:19:00,
2013-06-07 01:24:00,45.1,40.6,29.64,North,0,0.0,-999.0,84,0.00,,,-99.99,,2013-06-07 09:24:00,
2013-06-07 01:29:00,45.1,40.7,29.64,North,0,0.0,-999.0,84,0.00,,,-99.99,,2013-06-07 09:29:00,
2013-06-07 01:34:00,45.0,40.5,29.64,North,0,0.0,-999.0,84,0.00,,,-99.99,,2013-06-07 09:34:00,
2013-06-07 01:39:00,45.0,40.5,29.64,North,0,0.0,-999.0,84,0.00,,,-99.99,,2013-06-07 09:39:00,
2013-06-07 01:44:00,45.1,40.6,29.64,North,0,0.0,-999.0,84,0.00,,,-99.99,,2013-06-07 09:44:00,
2013-06-07 01:49:00,45.1,40.5,29.64,North,0,0.0,-999.0,83,0.00,,,-99.99,,2013-06-07 09:49:00,
2013-06-07 01:54:00,45.1,40.6,29.64,North,0,0.0,-999.0,84,0.00,,,-99.99,,2013-06-07 09:54:00,
2013-06-07 01:59:00,45.1,40.6,29.66,North,0,0.0,-999.0,83,0.00,,,-99.99,,2013-06-07 09:59:00,
2013-06-07 02:04:00,45.0,40.4,29.66,North,0,0.0,-999.0,83,0.00,,,-99.99,,2013-06-07 10:04:00,
2013-06-07 02:09:00,45.3,40.4,29.66,North,0,0.0,-999.0,83,0.00,,,-99.99,,2013-06-07 10:09:00,
2013-06-07 02:14:00,45.3,40.3,29.66,North,0,0.0,-999.0,82,0.00,,,-99.99,,2013-06-07 10:14:00,
2013-06-07 02:19:00,45.5,40.3,29.66,North,0,0.0,-999.0,81,0.00,,,-99.99,,2013-06-07 10:19:00,
2013-06-07 02:24:00,45.2,40.1,29.66,North,0,0.0,-999.0,82,0.00,,,-99.99,,2013-06-07 10:24:00,
2013-06-07 02:29:00,45.5,39.7,29.66,North,0,0.0,-999.0,80,0.00,,,-99.99,,2013-06-07 10:29:00,
2013-06-07 02:34:00,45.6,39.8,29.66,North,0,0.0,-999.0,80,0.00,,,-99.99,,2013-06-07 10:34:00,
2013-06-07 02:39:00,45.4,40.0,29.66,North,0,0.0,-999.0,81,0.00,,,-99.99,,2013-06-07 10:39:00,
2013-06-07 02:44:00,45.2,40.2,29.66,North,0,0.0,-999.0,82,0.00,,,-99.99,,2013-06-07 10:44:00,
2013-06-07 02:49:00,45.0,39.9,29.66,North,0,0.0,-999.0,82,0.00,,,-99.99,,2013-06-07 10:49:00,
2013-06-07 02:54:00,45.1,40.1,29.66,North,0,0.0,-999.0,82,0.00,,,-99.99,,2013-06-07 10:54:00,
2013-06-07 02:59:00,45.1,40.2,29.65,North,0,0.0,-999.0,82,0.00,,,-99.99,,2013-06-07 10:59:00,
2013-06-07 03:04:00,45.0,40.0,29.65,North,0,0.0,-999.0,82,0.00,,,-99.99,,2013-06-07 11:04:00,
2013-06-07 03:12:00,44.9,40.0,29.65,North,0,0.0,-999.0,82,0.00,,,-99.99,,2013-06-07 11:12:00,
2013-06-07 03:17:00,44.8,40.0,29.65,North,0,0.0,-999.0,83,0.00,,,-99.99,,2013-06-07 11:17:00,
2013-06-07 03:22:00,44.8,39.6,29.65,North,0,0.0,-999.0,81,0.00,,,-99.99,,2013-06-07 11:22:00,
2013-06-07 03:27:00,44.6,39.5,29.65,North,0,0.0,-999.0,82,0.00,,,-99.99,,2013-06-07 11:27:00,
2013-06-07 03:32:00,44.3,39.1,29.65,North,0,0.0,-999.0,81,0.00,,,-99.99,,2013-06-07 11:32:00,
2013-06-07 03:37:00,44.4,39.1,29.65,North,0,0.0,-999.0,81,0.00,,,-99.99,,2013-06-07 11:37:00,
2013-06-07 03:42:00,44.3,39.2,29.65,North,0,0.0,-999.0,81,0.00,,,-99.99,,2013-06-07 11:42:00,
2013-06-07 03:47:00,44.2,39.2,29.65,North,0,0.0,-999.0,82,0.00,,,-99.99,,2013-06-07 11:47:00,
2013-06-07 03:52:00,44.2,39.4,29.65,North,0,0.0,-999.0,82,0.00,,,-99.99,,2013-06-07 11:52:00,
2013-06-07 03:57:00,44.1,39.6,29.65,North,0,0.0,-999.0,83,0.00,,,-99.99,,2013-06-07 11:57:00,
2013-06-07 04:02:00,44.1,39.7,29.65,North,0,0.0,-999.0,84,0.00,,,-99.99,,2013-06-07 12:02:00,
2013-06-07 04:07:00,44.1,39.9,29.65,North,0,0.0,-999.0,85,0.00,,,-99.99,,2013-06-07 12:07:00,
2013-06-07 04:12:00,43.8,39.5,29.65,North,0,0.0,-999.0,84,0.00,,,-99.99,,2013-06-07 12:12:00,
2013-06-07 04:17:00,43.8,39.8,29.65,North,0,0.0,-999.0,85,0.00,,,-99.99,,2013-06-07 12:17:00,
2013-06-07 04:22:00,43.6,39.7,29.65,North,0,0.0,-999.0,86,0.00,,,-99.99,,2013-06-07 12:22:00,
2013-06-07 04:27:00,43.8,40.2,29.65,North,0,0.0,-999.0,86,0.00,,,-99.99,,2013-06-07 12:27:00,
2013-06-07 04:33:00,43.8,40.2,29.65,North,0,0.0,-999.0,86,0.00,,,-99.99,,2013-06-07 12:33:00,
2013-06-07 04:38:00,44.0,40.4,29.65,North,0,0.0,-999.0,87,0.00,,,-99.99,,2013-06-07 12:38:00,
2013-06-07 04:43:00,44.3,40.2,29.65,North,0,0.0,-999.0,85,0.00,,,-99.99,,2013-06-07 12:43:00,
2013-06-07 04:48:00,44.5,39.8,29.65,North,0,0.0,-999.0,83,0.00,,,-99.99,,2013-06-07 12:48:00,
2013-06-07 04:53:00,45.1,40.3,29.65,North,0,0.0,-999.0,83,0.00,,,-99.99,,2013-06-07 12:53:00,
2013-06-07 04:58:00,45.2,39.9,29.65,North,0,0.0,-999.0,81,0.00,,,-99.99,,2013-06-07 12:58:00,
2013-06-07 05:03:00,45.1,40.0,29.63,North,0,0.0,-999.0,82,0.00,,,-99.99,,2013-06-07 13:03:00,
2013-06-07 05:08:00,45.2,40.2,29.63,North,0,0.0,-999.0,82,0.00,,,-99.99,,2013-06-07 13:08:00,
2013-06-07 05:13:00,44.8,39.8,29.63,North,0,0.0,-999.0,82,0.00,,,-99.99,,2013-06-07 13:13:00,
2013-06-07 05:18:00,44.7,39.7,29.63,North,0,0.0,-999.0,82,0.00,,,-99.99,,2013-06-07 13:18:00,
2013-06-07 05:23:00,44.8,40.1,29.63,North,0,0.0,-999.0,83,0.00,,,-99.99,,2013-06-07 13:23:00,
2013-06-07 05:28:00,45.1,40.2,29.63,North,0,0.0,-999.0,82,0.00,,,-99.99,,2013-06-07 13:28:00,
2013-06-07 05:33:00,45.0,40.2,29.63,North,0,0.0,-999.0,83,0.00,,,-99.99,,2013-06-07 13:33:00,
2013-06-07 05:38:00,45.2,40.4,29.63,North,0,0.0,-999.0,83,0.00,,,-99.99,,2013-06-07 13:38:00,
2013-06-07 05:43:00,44.8,40.0,29.63,North,0,0.0,-999.0,83,0.00,,,-99.99,,2013-06-07 13:43:00,
2013-06-07 05:48:00,44.9,40.4,29.63,North,0,0.0,-999.0,84,0.00,,,-99.99,,2013-06-07 13:48:00,
2013-06-07 05:53:00,45.0,40.4,29.63,North,0,0.0,-999.0,84,0.00,,,-99.99,,2013-06-07 13:53:00,
2013-06-07 05:58:00,45.1,40.5,29.63,North,0,0.0,-999.0,83,0.00,,,-99.99,,2013-06-07 13:58:00,
2013-06-07 06:03:00,44.7,40.3,29.64,North,0,0.0,-999.0,84,0.00,,,-99.99,,2013-06-07 14:03:00,
2013-06-07 06:08:00,44.8,40.8,29.64,North,0,0.0,-999.0,85,0.00,,,-99.99,,2013-06-07 14:08:00,
2013-06-07 06:13:00,45.0,40.6,29.64,North,0,0.0,-999.0,84,0.00,,,-99.99,,2013-06-07 14:13:00,
2013-06-07 06:20:00,45.1,40.7,29.64,North,0,0.0,-999.0,84,0.00,,,-99.99,,2013-06-07 14:20:00,
2013-06-07 06:25:00,44.8,40.5,29.64,North,0,0.0,-999.0,84,0.00,,,-99.99,,2013-06-07 14:25:00,
2013-06-07 06:30:00,45.1,40.8,29.64,North,0,0.0,-999.0,84,0.00,,,-99.99,,2013-06-07 14:30:00,
2013-06-07 06:35:00,45.3,41.1,29.64,North,0,0.0,-999.0,85,0.00,,,-99.99,,2013-06-07 14:35:00,
2013-06-07 06:40:00,45.3,41.0,29.64,North,0,0.0,-999.0,84,0.00,,,-99.99,,2013-06-07 14:40:00,
2013-06-07 06:45:00,45.1,41.0,29.64,North,0,0.0,-999.0,85,0.00,,,-99.99,,2013-06-07 14:45:00,
2013-06-07 06:50:00,45.3,40.9,29.64,North,0,0.0,-999.0,84,0.00,,,-99.99,,2013-06-07 14:50:00,
2013-06-07 06:55:00,45.1,40.8,29.64,North,0,0.0,-999.0,84,0.00,,,-99.99,,2013-06-07 14:55:00,
2013-06-07 07:00:00,45.2,40.7,29.64,North,0,0.0,-999.0,84,0.00,,,-99.99,,2013-06-07 15:00:00,
2013-06-07 07:05:00,45.7,41.0,29.64,North,0,0.0,-999.0,83,0.00,,,-99.99,,2013-06-07 15:05:00,
2013-06-07 07:10:00,46.1,41.2,29.64,North,0,0.0,-999.0,83,0.00,,,-99.99,,2013-06-07 15:10:00,
2013-06-07 07:15:00,46.4,41.6,29.64,North,0,0.0,-999.0,83,0.00,,,-99.99,,2013-06-07 15:15:00,
2013-06-07 07:20:00,46.2,41.7,29.64,North,0,0.0,-999.0,84,0.00,,,-99.99,,2013-06-07 15:20:00,
2013-06-07 07:25:00,46.9,41.2,29.64,North,0,0.0,-999.0,80,0.00,,,-99.99,,2013-06-07 15:25:00,
2013-06-07 07:30:00,47.8,41.9,29.64,North,0,0.0,-999.0,79,0.00,,,-99.99,,2013-06-07 15:30:00,
2013-06-07 07:35:00,46.8,42.0,29.64,North,0,0.0,-999.0,83,0.00,,,-99.99,,2013-06-07 15:35:00,
2013-06-07 07:40:00,46.8,42.1,29.64,North,0,0.0,-999.0,83,0.00,,,-99.99,,2013-06-07 15:40:00,
2013-06-07 07:45:00,47.3,42.4,29.64,North,0,0.0,-999.0,82,0.00,,,-99.99,,2013-06-07 15:45:00,
2013-06-07 07:50:00,47.3,41.8,29.64,North,0,0.0,-999.0,80,0.00,,,-99.99,,2013-06-07 15:50:00,
2013-06-07 07:55:00,47.6,41.6,29.64,North,0,0.0,-999.0,79,0.00,,,-99.99,,2013-06-07 15:55:00,
2013-06-07 08:00:00,47.6,42.3,29.67,North,0,0.0,-999.0,81,0.00,,,-99.99,,2013-06-07 16:00:00,
2013-06-07 08:05:00,47.6,42.3,29.67,North,0,0.0,-999.0,81,0.00,,,-99.99,,2013-06-07 16:05:00,
2013-06-07 08:10:00,48.0,42.7,29.67,North,0,0.0,-999.0,81,0.00,,,-99.99,,2013-06-07 16:10:00,
2013-06-07 08:15:00,48.8,43.3,29.67,North,0,0.0,-999.0,81,0.00,,,-99.99,,2013-06-07 16:15:00,
2013-06-07 08:20:00,49.7,44.0,29.67,North,0,0.0,-999.0,80,0.00,,,-99.99,,2013-06-07 16:20:00,
2013-06-07 08:25:00,50.2,43.8,29.67,North,0,0.0,-999.0,78,0.00,,,-99.99,,2013-06-07 16:25:00,
2013-06-07 08:30:00,51.6,44.5,29.67,North,0,0.0,-999.0,76,0.00,,,-99.99,,2013-06-07 16:30:00,
2013-06-07 08:35:00,52.5,45.1,29.67,North,0,0.0,-999.0,75,0.00,,,-99.99,,2013-06-07 16:35:00,
2013-06-07 08:40:00,53.6,41.9,29.67,North,0,0.0,-999.0,64,0.00,,,-99.99,,2013-06-07 16:40:00,
2013-06-07 08:45:00,54.2,43.4,29.67,North,0,0.0,-999.0,66,0.00,,,-99.99,,2013-06-07 16:45:00,
2013-06-07 08:50:00,53.5,42.7,29.67,North,0,0.0,-999.0,66,0.00,,,-99.99,,2013-06-07 16:50:00,
2013-06-07 08:55:00,53.4,43.6,29.67,North,0,0.0,-999.0,69,0.00,,,-99.99,,2013-06-07 16:55:00,
2013-06-07 09:00:00,52.7,43.8,29.69,North,0,0.0,-999.0,71,0.00,,,-99.99,,2013-06-07 17:00:00,
2013-06-07 09:05:00,52.7,44.2,29.69,North,0,0.0,-999.0,72,0.00,,,-99.99,,2013-06-07 17:05:00,
2013-06-07 09:10:00,52.4,43.8,29.69,North,0,0.0,-999.0,72,0.00,,,-99.99,,2013-06-07 17:10:00,
2013-06-07 09:17:00,52.2,44.2,29.69,North,0,0.0,-999.0,73,0.00,,,-99.99,,2013-06-07 17:17:00,
2013-06-07 09:22:00,52.3,43.9,29.69,North,0,0.0,-999.0,72,0.00,,,-99.99,,2013-06-07 17:22:00,
2013-06-07 09:27:00,52.6,43.8,29.69,North,0,0.0,-999.0,71,0.00,,,-99.99,,2013-06-07 17:27:00,
2013-06-07 09:32:00,53.2,44.7,29.69,North,0,0.0,-999.0,72,0.00,,,-99.99,,2013-06-07 17:32:00,
2013-06-07 09:37:00,53.5,43.4,29.69,North,0,0.0,-999.0,68,0.00,,,-99.99,,2013-06-07 17:37:00,
2013-06-07 09:42:00,53.8,42.6,29.69,North,0,0.0,-999.0,65,0.00,,,-99.99,,2013-06-07 17:42:00,
2013-06-07 09:47:00,53.2,43.2,29.69,North,0,0.0,-999.0,68,0.00,,,-99.99,,2013-06-07 17:47:00,
2013-06-07 09:52:00,53.1,44.2,29.69,North,0,0.0,-999.0,71,0.00,,,-99.99,,2013-06-07 17:52:00,
2013-06-07 09:57:00,53.6,43.7,29.69,North,0,0.0,-999.0,69,0.00,,,-99.99,,2013-06-07 17:57:00,
2013-06-07 10:02:00,53.9,42.3,29.69,North,0,0.0,-999.0,64,0.00,,,-99.99,,2013-06-07 18:02:00,
2013-06-07 10:07:00,54.4,41.0,29.69,North,0,0.0,-999.0,60,0.00,,,-99.99,,2013-06-07 18:07:00,
2013-06-07 10:12:00,54.3,42.7,29.69,North,0,0.0,-999.0,64,0.00,,,-99.99,,2013-06-07 18:12:00,
2013-06-07 10:17:00,54.9,41.7,29.69,North,0,0.0,-999.0,60,0.00,,,-99.99,,2013-06-07 18:17:00,
2013-06-07 10:22:00,55.4,41.1,29.69,North,0,0.0,-999.0,58,0.00,,,-99.99,,2013-06-07 18:22:00,
2013-06-07 10:27:00,55.0,42.0,29.69,North,0,0.0,-999.0,61,0.00,,,-99.99,,2013-06-07 18:27:00,
2013-06-07 10:35:00,55.3,41.3,29.69,North,0,0.0,-999.0,59,0.00,,,-99.99,,2013-06-07 18:35:00,
2013-06-07 10:40:00,55.2,39.3,29.69,North,0,0.0,-999.0,54,0.00,,,-99.99,,2013-06-07 18:40:00,
2013-06-07 10:49:00,55.6,40.1,29.69,North,0,0.0,-999.0,55,0.00,,,-99.99,,2013-06-07 18:49:00,
2013-06-07 10:54:00,56.2,40.7,29.69,North,0,0.0,-999.0,55,0.00,,,-99.99,,2013-06-07 18:54:00,
2013-06-07 11:01:00,57.2,39.6,29.70,North,0,0.0,-999.0,51,0.00,,,-99.99,,2013-06-07 19:01:00,
2013-06-07 11:06:00,57.8,40.1,29.70,North,0,0.0,-999.0,51,0.00,,,-99.99,,2013-06-07 19:06:00,
2013-06-07 11:11:00,58.0,41.3,29.70,North,0,0.0,-999.0,53,0.00,,,-99.99,,2013-06-07 19:11:00,
2013-06-07 11:17:00,58.1,37.7,29.70,North,0,0.0,-999.0,46,0.00,,,-99.99,,2013-06-07 19:17:00,
2013-06-07 11:24:00,59.4,41.5,29.70,North,0,0.0,-999.0,51,0.00,,,-99.99,,2013-06-07 19:24:00,
2013-06-07 11:29:00,59.0,39.5,29.70,North,0,0.0,-999.0,48,0.00,,,-99.99,,2013-06-07 19:29:00,
2013-06-07 11:34:00,56.9,40.7,29.70,North,0,0.0,-999.0,54,0.00,,,-99.99,,2013-06-07 19:34:00,
2013-06-07 11:39:00,57.2,41.2,29.70,North,0,0.0,-999.0,55,0.00,,,-99.99,,2013-06-07 19:39:00,
2013-06-07 11:44:00,56.7,39.1,29.70,North,0,0.0,-999.0,51,0.00,,,-99.99,,2013-06-07 19:44:00,
2013-06-07 11:49:00,56.9,40.5,29.70,North,0,0.0,-999.0,54,0.00,,,-99.99,,2013-06-07 19:49:00,
2013-06-07 11:54:00,57.5,40.2,29.70,North,0,0.0,-999.0,52,0.00,,,-99.99,,2013-06-07 19:54:00,
2013-06-07 11:59:00,55.8,39.7,29.73,North,0,0.0,-999.0,54,0.00,,,-99.99,,2013-06-07 19:59:00,
2013-06-07 12:06:00,55.3,39.1,29.73,North,0,0.0,-999.0,54,0.00,,,-99.99,,2013-06-07 20:06:00,
2013-06-07 12:11:00,54.0,38.3,29.73,North,0,0.0,-999.0,55,0.00,,,-99.99,,2013-06-07 20:11:00,
2013-06-07 12:18:00,54.3,38.6,29.73,North,0,0.0,-999.0,55,0.00,,,-99.99,,2013-06-07 20:18:00,
2013-06-07 12:23:00,52.5,38.2,29.73,North,0,0.0,-999.0,58,0.00,,,-99.99,,2013-06-07 20:23:00,
2013-06-07 12:28:00,52.1,38.4,29.73,North,0,0.0,-999.0,59,0.00,,,-99.99,,2013-06-07 20:28:00,
2013-06-07 12:33:00,52.7,38.4,29.73,North,0,0.0,-999.0,58,0.00,,,-99.99,,2013-06-07 20:33:00,
2013-06-07 12:40:00,53.4,38.6,29.73,North,0,0.0,-999.0,57,0.00,,,-99.99,,2013-06-07 20:40:00,
2013-06-07 12:45:00,53.0,38.1,29.73,North,0,0.0,-999.0,56,0.00,,,-99.99,,2013-06-07 20:45:00,
2013-06-07 12:50:00,52.9,37.7,29.73,North,0,0.0,-999.0,56,0.00,,,-99.99,,2013-06-07 20:50:00,
2013-06-07 12:56:00,54.3,37.8,29.73,North,0,0.0,-999.0,53,0.00,,,-99.99,,2013-06-07 20:56:00,
2013-06-07 13:01:00,53.4,37.6,29.75,North,0,0.0,-999.0,54,0.00,,,-99.99,,2013-06-07 21:01:00,
2013-06-07 13:06:00,53.8,37.8,29.75,North,0,0.0,-999.0,54,0.00,,,-99.99,,2013-06-07 21:06:00,
2013-06-07 13:16:00,54.8,37.5,29.75,North,0,0.0,-999.0,51,0.00,,,-99.99,,2013-06-07 21:16:00,
2013-06-07 13:21:00,55.1,37.2,29.75,North,0,0.0,-999.0,50,0.00,,,-99.99,,2013-06-07 21:21:00,
2013-06-07 13:26:00,54.6,36.7,29.75,North,0,0.0,-999.0,50,0.00,,,-99.99,,2013-06-07 21:26:00,
2013-06-07 13:33:00,55.4,37.4,29.75,North,0,0.0,-999.0,50,0.00,,,-99.99,,2013-06-07 21:33:00,
2013-06-07 13:38:00,55.9,36.9,29.75,North,0,0.0,-999.0,48,0.00,,,-99.99,,2013-06-07 21:38:00,
2013-06-07 13:43:00,56.8,36.7,29.75,North,0,0.0,-999.0,46,0.00,,,-99.99,,2013-06-07 21:43:00,
2013-06-07 13:48:00,56.4,37.3,29.75,North,0,0.0,-999.0,48,0.00,,,-99.99,,2013-06-07 21:48:00,
2013-06-07 13:54:00,56.5,36.6,29.75,North,0,0.0,-999.0,46,0.00,,,-99.99,,2013-06-07 21:54:00,
2013-06-07 13:59:00,56.7,38.1,29.77,North,0,0.0,-999.0,49,0.00,,,-99.99,,2013-06-07 21:59:00,
2013-06-07 14:04:00,56.8,37.0,29.77,North,0,0.0,-999.0,47,0.00,,,-99.99,,2013-06-07 22:04:00,
2013-06-07 14:11:00,57.0,37.7,29.77,North,0,0.0,-999.0,48,0.00,,,-99.99,,2013-06-07 22:11:00,
2013-06-07 14:17:00,57.1,37.9,29.77,North,0,0.0,-999.0,48,0.00,,,-99.99,,2013-06-07 22:17:00,
2013-06-07 14:22:00,56.0,38.0,29.77,North,0,0.0,-999.0,50,0.01,,,-99.99,,2013-06-07 22:22:00,
2013-06-07 14:27:00,56.0,38.7,29.77,North,0,0.0,-999.0,52,0.01,,,-99.99,,2013-06-07 22:27:00,
2013-06-07 14:32:00,57.2,37.7,29.77,North,0,0.0,-999.0,47,0.01,,,-99.99,,2013-06-07 22:32:00,
2013-06-07 14:37:00,57.3,37.2,29.77,North,0,0.0,-999.0,46,0.01,,,-99.99,,2013-06-07 22:37:00,
2013-06-07 14:44:00,55.2,36.8,29.77,North,0,0.0,-999.0,49,0.01,,,-99.99,,2013-06-07 22:44:00,
2013-06-07 14:51:00,56.8,37.6,29.77,North,0,0.0,-999.0,48,0.01,,,-99.99,,2013-06-07 22:51:00,
2013-06-07 14:56:00,55.4,36.2,29.77,North,0,0.0,-999.0,48,0.01,,,-99.99,,2013-06-07 22:56:00,
2013-06-07 15:01:00,55.3,37.3,29.78,North,0,0.0,-999.0,50,0.00,,,-99.99,,2013-06-07 23:01:00,
2013-06-07 15:06:00,56.3,37.5,29.78,North,0,0.0,-999.0,49,0.00,,,-99.99,,2013-06-07 23:06:00,
2013-06-07 15:13:00,55.1,37.1,29.78,North,0,0.0,-999.0,50,0.00,,,-99.99,,2013-06-07 23:13:00,
2013-06-07 15:18:00,55.1,37.3,29.78,North,0,0.0,-999.0,51,0.00,,,-99.99,,2013-06-07 23:18:00,
2013-06-07 15:23:00,54.8,36.5,29.78,North,0,0.0,-999.0,49,0.00,,,-99.99,,2013-06-07 23:23:00,
2013-06-07 15:28:00,55.3,37.8,29.78,North,0,0.0,-999.0,51,0.00,,,-99.99,,2013-06-07 23:28:00,
2013-06-07 15:33:00,55.0,36.6,29.78,North,0,0.0,-999.0,49,0.00,,,-99.99,,2013-06-07 23:33:00,
2013-06-07 15:40:00,55.6,37.0,29.78,North,0,0.0,-999.0,49,0.00,,,-99.99,,2013-06-07 23:40:00,
2013-06-07 15:45:00,56.3,37.5,29.78,North,0,0.0,-999.0,49,0.00,,,-99.99,,2013-06-07 23:45:00,
2013-06-07 15:50:00,55.3,36.6,29.78,North,0,0.0,-999.0,49,0.00,,,-99.99,,2013-06-07 23:50:00,
2013-06-07 15:55:00,55.1,36.7,29.78,North,0,0.0,-999.0,49,0.00,,,-99.99,,2013-06-07 23:55:00,
2013-06-07 16:02:00,55.3,37.0,29.80,North,0,0.0,-999.0,50,0.00,,,-99.99,,2013-06-08 00:02:00,
2013-06-07 16:09:00,54.3,36.5,29.80,North,0,0.0,-999.0,50,0.00,,,-99.99,,2013-06-08 00:09:00,
2013-06-07 16:14:00,54.7,37.2,29.80,North,0,0.0,-999.0,51,0.00,,,-99.99,,2013-06-08 00:14:00,
2013-06-07 16:23:00,56.4,38.0,29.80,North,0,0.0,-999.0,49,0.00,,,-99.99,,2013-06-08 00:23:00,
2013-06-07 16:30:00,56.7,37.1,29.80,North,0,0.0,-999.0,47,0.00,,,-99.99,,2013-06-08 00:30:00,
2013-06-07 16:35:00,56.8,37.5,29.80,North,0,0.0,-999.0,48,0.00,,,-99.99,,2013-06-08 00:35:00,
2013-06-07 16:41:00,57.2,37.9,29.80,North,0,0.0,-999.0,48,0.00,,,-99.99,,2013-06-08 00:41:00,
2013-06-07 16:47:00,56.2,37.4,29.80,North,0,0.0,-999.0,49,0.00,,,-99.99,,2013-06-08 00:47:00,
2013-06-07 16:52:00,55.1,38.5,29.80,North,0,0.0,-999.0,53,0.00,,,-99.99,,2013-06-08 00:52:00,
2013-06-07 16:57:00,54.2,38.2,29.80,North,0,0.0,-999.0,54,0.00,,,-99.99,,2013-06-08 00:57:00,
2013-06-07 17:02:00,54.1,38.7,29.81,North,0,0.0,-999.0,55,0.00,,,-99.99,,2013-06-08 01:02:00,
2013-06-07 17:07:00,52.4,38.8,29.81,North,0,0.0,-999.0,59,0.00,,,-99.99,,2013-06-08 01:07:00,
2013-06-07 17:14:00,52.7,39.2,29.81,North,0,0.0,-999.0,59,0.00,,,-99.99,,2013-06-08 01:14:00,
2013-06-07 17:19:00,52.3,39.6,29.81,North,0,0.0,-999.0,61,0.00,,,-99.99,,2013-06-08 01:19:00,
2013-06-07 17:24:00,52.2,39.6,29.81,North,0,0.0,-999.0,62,0.00,,,-99.99,,2013-06-08 01:24:00,
2013-06-07 17:29:00,52.2,39.0,29.81,North,0,0.0,-999.0,60,0.00,,,-99.99,,2013-06-08 01:29:00,
2013-06-07 17:34:00,52.4,39.3,29.81,North,0,0.0,-999.0,60,0.00,,,-99.99,,2013-06-08 01:34:00,
2013-06-07 17:39:00,52.5,39.2,29.81,North,0,0.0,-999.0,60,0.00,,,-99.99,,2013-06-08 01:39:00,
2013-06-07 17:44:00,52.3,39.8,29.81,North,0,0.0,-999.0,62,0.00,,,-99.99,,2013-06-08 01:44:00,
2013-06-07 17:49:00,51.8,38.8,29.81,North,0,0.0,-999.0,61,0.00,,,-99.99,,2013-06-08 01:49:00,
2013-06-07 17:56:00,52.7,38.0,29.81,North,0,0.0,-999.0,57,0.00,,,-99.99,,2013-06-08 01:56:00,
2013-06-07 18:01:00,52.6,37.2,29.81,North,0,0.0,-999.0,55,0.00,,,-99.99,,2013-06-08 02:01:00,
2013-06-07 18:06:00,53.6,37.8,29.81,North,0,0.0,-999.0,54,0.00,,,-99.99,,2013-06-08 02:06:00,
2013-06-07 18:11:00,53.9,37.3,29.81,North,0,0.0,-999.0,53,0.00,,,-99.99,,2013-06-08 02:11:00,
2013-06-07 18:16:00,52.6,37.0,29.81,North,0,0.0,-999.0,55,0.00,,,-99.99,,2013-06-08 02:16:00,
2013-06-07 18:21:00,52.0,37.1,29.81,North,0,0.0,-999.0,56,0.00,,,-99.99,,2013-06-08 02:21:00,
2013-06-07 18:28:00,52.2,37.0,29.81,North,0,0.0,-999.0,55,0.00,,,-99.99,,2013-06-08 02:28:00,
2013-06-07 18:33:00,52.2,36.6,29.81,North,0,0.0,-999.0,54,0.00,,,-99.99,,2013-06-08 02:33:00,
2013-06-07 18:38:00,52.1,37.2,29.81,North,0,0.0,-999.0,56,0.00,,,-99.99,,2013-06-08 02:38:00,
2013-06-07 18:45:00,52.2,37.1,29.81,North,0,0.0,-999.0,56,0.00,,,-99.99,,2013-06-08 02:45:00,
2013-06-07 18:50:00,51.6,37.6,29.81,North,0,0.0,-999.0,58,0.00,,,-99.99,,2013-06-08 02:50:00,
2013-06-07 18:56:00,51.2,37.3,29.81,North,0,0.0,-999.0,58,0.00,,,-99.99,,2013-06-08 02:56:00,
2013-06-07 19:01:00,50.5,37.2,29.81,North,0,0.0,-999.0,60,0.00,,,-99.99,,2013-06-08 03:01:00,
2013-06-07 19:06:00,50.2,37.5,29.81,North,0,0.0,-999.0,61,0.00,,,-99.99,,2013-06-08 03:06:00,
2013-06-07 19:12:00,50.4,37.9,29.81,North,0,0.0,-999.0,61,0.00,,,-99.99,,2013-06-08 03:12:00,
2013-06-07 19:17:00,50.3,38.0,29.81,North,0,0.0,-999.0,62,0.00,,,-99.99,,2013-06-08 03:17:00,
2013-06-07 19:22:00,50.5,38.3,29.81,North,0,0.0,-999.0,62,0.00,,,-99.99,,2013-06-08 03:22:00,
2013-06-07 19:29:00,51.0,38.3,29.81,North,0,0.0,-999.0,61,0.00,,,-99.99,,2013-06-08 03:29:00,
2013-06-07 19:34:00,50.5,37.9,29.81,North,0,0.0,-999.0,61,0.00,,,-99.99,,2013-06-08 03:34:00,
2013-06-07 19:40:00,51.1,38.4,29.81,North,0,0.0,-999.0,61,0.00,,,-99.99,,2013-06-08 03:40:00,
2013-06-07 19:46:00,51.0,37.6,29.81,North,0,0.0,-999.0,59,0.00,,,-99.99,,2013-06-08 03:46:00,
2013-06-07 19:52:00,51.1,38.0,29.81,North,0,0.0,-999.0,60,0.00,,,-99.99,,2013-06-08 03:52:00,
2013-06-07 19:57:00,51.0,38.5,29.81,North,0,0.0,-999.0,62,0.00,,,-99.99,,2013-06-08 03:57:00,
2013-06-07 20:01:00,51.2,39.2,29.84,North,0,0.0,-999.0,63,0.00,,,-99.99,,2013-06-08 04:01:00,
2013-06-07 20:03:00,51.6,39.2,29.84,North,0,0.0,-999.0,62,0.00,,,-99.99,,2013-06-08 04:03:00,
2013-06-07 20:07:00,51.1,38.3,29.84,North,0,0.0,-999.0,61,0.00,,,-99.99,,2013-06-08 04:07:00,
2013-06-07 20:10:00,51.2,38.5,29.84,North,0,0.0,-999.0,61,0.00,,,-99.99,,2013-06-08 04:10:00,
2013-06-07 20:13:00,51.3,38.6,29.84,North,0,0.0,-999.0,61,0.00,,,-99.99,,2013-06-08 04:13:00,
2013-06-07 20:18:00,51.2,39.0,29.84,North,0,0.0,-999.0,62,0.00,,,-99.99,,2013-06-08 04:18:00,
2013-06-07 20:23:00,51.3,39.5,29.84,North,0,0.0,-999.0,64,0.00,,,-99.99,,2013-06-08 04:23:00,
2013-06-07 20:28:00,51.2,39.4,29.84,North,0,0.0,-999.0,63,0.00,,,-99.99,,2013-06-08 04:28:00,
2013-06-07 20:33:00,51.1,39.2,29.84,North,0,0.0,-999.0,63,0.00,,,-99.99,,2013-06-08 04:33:00,
2013-06-07 20:38:00,51.6,39.4,29.84,North,0,0.0,-999.0,62,0.00,,,-99.99,,2013-06-08 04:38:00,
2013-06-07 20:43:00,51.7,39.7,29.84,North,0,0.0,-999.0,63,0.00,,,-99.99,,2013-06-08 04:43:00,
2013-06-07 20:48:00,51.8,40.2,29.84,North,0,0.0,-999.0,64,0.00,,,-99.99,,2013-06-08 04:48:00,
2013-06-07 20:53:00,51.7,40.5,29.84,North,0,0.0,-999.0,65,0.00,,,-99.99,,2013-06-08 04:53:00,
2013-06-07 20:58:00,51.5,40.6,29.84,North,0,0.0,-999.0,66,0.00,,,-99.99,,2013-06-08 04:58:00,
2013-06-07 21:03:00,51.7,40.6,29.85,North,0,0.0,-999.0,65,0.00,,,-99.99,,2013-06-08 05:03:00,
2013-06-07 21:08:00,51.7,40.9,29.85,North,0,0.0,-999.0,66,0.00,,,-99.99,,2013-06-08 05:08:00,
2013-06-07 21:13:00,51.5,40.9,29.85,North,0,0.0,-999.0,66,0.00,,,-99.99,,2013-06-08 05:13:00,
2013-06-07 21:18:00,51.1,41.4,29.85,North,0,0.0,-999.0,69,0.00,,,-99.99,,2013-06-08 05:18:00,
2013-06-07 21:23:00,51.0,41.8,29.85,North,0,0.0,-999.0,70,0.00,,,-99.99,,2013-06-08 05:23:00,
2013-06-07 21:28:00,50.4,41.8,29.85,North,0,0.0,-999.0,72,0.00,,,-99.99,,2013-06-08 05:28:00,
2013-06-07 21:33:00,50.2,41.8,29.85,North,0,0.0,-999.0,72,0.00,,,-99.99,,2013-06-08 05:33:00,
2013-06-07 21:38:00,49.9,41.7,29.85,North,0,0.0,-999.0,73,0.00,,,-99.99,,2013-06-08 05:38:00,
2013-06-07 21:43:00,49.5,41.7,29.85,North,0,0.0,-999.0,74,0.00,,,-99.99,,2013-06-08 05:43:00,
2013-06-07 21:48:00,49.4,41.7,29.85,North,0,0.0,-999.0,74,0.00,,,-99.99,,2013-06-08 05:48:00,
2013-06-07 21:53:00,49.4,41.8,29.85,North,0,0.0,-999.0,75,0.00,,,-99.99,,2013-06-08 05:53:00,
2013-06-07 21:58:00,49.2,41.9,29.85,North,0,0.0,-999.0,75,0.00,,,-99.99,,2013-06-08 05:58:00,
2013-06-07 22:03:00,48.9,41.8,29.86,North,0,0.0,-999.0,76,0.00,,,-99.99,,2013-06-08 06:03:00,
2013-06-07 22:08:00,48.5,41.6,29.86,North,0,0.0,-999.0,76,0.00,,,-99.99,,2013-06-08 06:08:00,
2013-06-07 22:13:00,48.1,41.5,29.86,North,0,0.0,-999.0,77,0.00,,,-99.99,,2013-06-08 06:13:00,
2013-06-07 22:18:00,48.0,41.6,29.86,North,0,0.0,-999.0,78,0.00,,,-99.99,,2013-06-08 06:18:00,
2013-06-07 22:23:00,47.9,41.3,29.86,North,0,0.0,-999.0,77,0.00,,,-99.99,,2013-06-08 06:23:00,
2013-06-07 22:28:00,47.6,41.3,29.86,North,0,0.0,-999.0,78,0.00,,,-99.99,,2013-06-08 06:28:00,
2013-06-07 22:33:00,47.3,40.9,29.86,North,0,0.0,-999.0,78,0.00,,,-99.99,,2013-06-08 06:33:00,
2013-06-07 22:38:00,47.2,40.7,29.86,North,0,0.0,-999.0,78,0.00,,,-99.99,,2013-06-08 06:38:00,
2013-06-07 22:43:00,47.0,40.7,29.86,North,0,0.0,-999.0,78,0.00,,,-99.99,,2013-06-08 06:43:00,
2013-06-07 22:48:00,47.0,40.6,29.86,North,0,0.0,-999.0,78,0.00,,,-99.99,,2013-06-08 06:48:00,
2013-06-07 22:53:00,46.7,40.4,29.86,North,0,0.0,-999.0,78,0.00,,,-99.99,,2013-06-08 06:53:00,
2013-06-07 22:58:00,46.4,40.2,29.86,North,0,0.0,-999.0,78,0.00,,,-99.99,,2013-06-08 06:58:00,
2013-06-07 23:03:00,46.5,40.3,29.88,North,0,0.0,-999.0,78,0.00,,,-99.99,,2013-06-08 07:03:00,
2013-06-07 23:08:00,46.5,40.4,29.88,North,0,0.0,-999.0,79,0.00,,,-99.99,,2013-06-08 07:08:00,
2013-06-07 23:13:00,46.3,40.1,29.88,North,0,0.0,-999.0,78,0.00,,,-99.99,,2013-06-08 07:13:00,
2013-06-07 23:18:00,46.0,39.6,29.88,North,0,0.0,-999.0,78,0.00,,,-99.99,,2013-06-08 07:18:00,
2013-06-07 23:23:00,45.9,39.8,29.88,North,0,0.0,-999.0,79,0.00,,,-99.99,,2013-06-08 07:23:00,
2013-06-07 23:28:00,45.6,39.3,29.88,North,0,0.0,-999.0,78,0.00,,,-99.99,,2013-06-08 07:28:00,
2013-06-07 23:33:00,45.6,39.5,29.88,North,0,0.0,-999.0,79,0.00,,,-99.99,,2013-06-08 07:33:00,
2013-06-07 23:38:00,45.4,39.5,29.88,North,0,0.0,-999.0,79,0.00,,,-99.99,,2013-06-08 07:38:00,
2013-06-07 23:43:00,45.4,39.6,29.88,North,0,0.0,-999.0,80,0.00,,,-99.99,,2013-06-08 07:43:00,
2013-06-07 23:48:00,45.3,39.8,29.88,North,0,0.0,-999.0,81,0.00,,,-99.99,,2013-06-08 07:48:00,
2013-06-07 23:53:00,45.0,39.3,29.88,North,0,0.0,-999.0,80,0.00,,,-99.99,,2013-06-08 07:53:00,
2013-06-07 23:58:00,44.9,39.4,29.88,North,0,0.0,-999.0,81,0.00,,,-99.99,,2013-06-08 07:58:00,